This demonstration page uses our WeatherBlox Daily Observations layout. Learn more.

Hourly Observations for April 11, 2017

Temp ( °F °C ) Dew Point ( °F °C ) Humidity (%) Winds ( mph kmh ) Pressure ( in mb ) Visibility ( mi km ) Precip ( " mm )
12:15 am 00:15 Clear 32 0 28 -2 87 87 E 5 7 30.33 1027 10 16.0934 0 0
12:35 am 00:35 Clear 33 0.4 29 -1.4 88 88 Calm 30.33 1027 10 16.0934 0 0
12:55 am 00:55 Clear 32 -0.1 28 -2.2 86 86 Calm 30.33 1027 10 16.0934 0 0
1:15 am 01:15 Clear 32 0.1 29 -1.6 88 88 Calm 30.33 1027 10 16.0934 0 0
1:35 am 01:35 Clear 31 -0.7 27 -2.6 87 87 ENE 5 7 30.3 1026 10 16.0934 0 0
1:55 am 01:55 Clear 29 -1.4 28 -2.5 92 92 Calm 30.33 1027 10 16.0934 0 0
2:15 am 02:15 Clear 31 -0.6 28 -2.2 89 89 Calm 30.33 1027 10 16.0934 0 0
2:35 am 02:35 Clear 32 -0.1 29 -1.7 89 89 SSE 5 7 30.33 1027 10 16.0934 0 0
2:55 am 02:55 Clear 31 -0.8 28 -2.2 90 90 S 6 9 30.33 1027 10 16.0934 0 0
3:15 am 03:15 Clear 28 -2.1 26 -3.6 90 90 E 7 11 30.33 1027 10 16.0934 0 0
3:35 am 03:35 Clear 30 -0.9 28 -2 92 92 E 7 11 30.3 1026 10 16.0934 0 0
3:55 am 03:55 Clear 30 -1.1 28 -2.5 90 90 ENE 9 15 30.3 1026 10 16.0934 0 0
4:15 am 04:15 Clear 30 -1.1 28 -2.3 92 92 E 5 7 30.3 1026 10 16.0934 0 0
4:35 am 04:35 Clear 30 -1.2 27 -2.6 90 90 Calm 30.33 1027 10 16.0934 0 0
4:55 am 04:55 Clear 29 -1.5 27 -2.8 91 91 SW 5 7 30.36 1028 10 16.0934 0 0
5:15 am 05:15 Clear 29 -1.6 27 -3 90 90 SW 3 6 30.36 1028 10 16.0934 0 0
5:35 am 05:35 Clear 29 -1.7 27 -3 91 91 Calm 30.36 1028 10 16.0934 0 0
5:55 am 05:55 Clear 29 -1.9 26 -3.2 91 91 SW 3 6 30.36 1028 10 16.0934 0 0
6:15 am 06:15 Clear 29 -1.6 27 -2.8 92 92 SW 3 6 30.39 1029 10 16.0934 0 0
6:35 am 06:35 Clear 30 -1.2 28 -2.5 91 91 SW 5 7 30.36 1028 10 16.0934 0 0
6:55 am 06:55 Clear 31 -0.8 28 -2 92 92 SW 5 7 30.36 1028 10 16.0934 0 0
7:15 am 07:15 Sunny 31 -0.8 28 -2 92 92 Calm 30.36 1028 10 16.0934 0 0
7:35 am 07:35 Sunny 30 -0.9 28 -2.2 91 91 Calm 30.36 1028 10 16.0934 0 0
7:55 am 07:55 Sunny 31 -0.3 29 -1.7 90 90 Calm 30.36 1028 10 16.0934 0 0
8:15 am 08:15 Sunny 32 0.2 30 -1.1 91 91 Calm 30.36 1028 10 16.0934 0 0
8:35 am 08:35 Sunny 35 1.6 32 -0.2 88 88 SSW 3 6 30.36 1028 10 16.0934 0 0
8:55 am 08:55 Sunny 37 3 32 0 81 81 SSW 9 15 30.33 1027 10 16.0934 0 0
9:15 am 09:15 Sunny 38 3.6 33 0.5 80 80 SSW 9 15 30.33 1027 10 16.0934 0 0
9:35 am 09:35 Sunny 40 4.4 33 0.6 77 77 SSW 9 15 30.36 1028 10 16.0934 0 0
9:55 am 09:55 Sunny 42 5.4 34 0.9 73 73 SW 9 15 30.33 1027 10 16.0934 0 0
10:15 am 10:15 Sunny 43 6.1 34 0.9 70 70 SSW 8 13 30.33 1027 10 16.0934 0 0
10:35 am 10:35 Sunny 45 7.4 33 0.7 63 63 SSW 6 9 30.33 1027 10 16.0934 0 0
10:55 am 10:55 Sunny 48 9 34 1 58 58 SW 10 17 30.3 1026 10 16.0934 0 0
11:15 am 11:15 Sunny 49 9.5 34 1 56 56 SSW 9 15 30.3 1026 10 16.0934 0 0
11:35 am 11:35 Sunny 51 10.6 34 1.3 53 53 SSW 9 15 30.3 1026 10 16.0934 0 0
11:55 am 11:55 Sunny 53 11.6 34 1.2 49 49 S 12 19 30.24 1024 10 16.0934 0 0
12:15 pm 12:15 Sunny 54 12.2 35 1.4 48 48 S 16 26 30.24 1024 10 16.0934 0 0
12:35 pm 12:35 Sunny 56 13.3 34 1.1 44 44 S 13 20 30.21 1023 10 16.0934 0 0
12:55 pm 12:55 Sunny 57 14 33 0.8 41 41 S 16 26 30.21 1023 10 16.0934 0 0
1:15 pm 13:15 Sunny 58 14.4 33 0.5 39 39 S 18 30 30.21 1023 10 16.0934 0 0
1:35 pm 13:35 Sunny 60 15.3 33 0.5 37 37 S 16 26 30.15 1021 10 16.0934 0 0
1:55 pm 13:55 Sunny 60 15.8 33 0.5 36 36 S 15 24 30.15 1021 10 16.0934 0 0
2:15 pm 14:15 Sunny 62 16.6 33 0.3 33 33 S 16 26 30.12 1020 10 16.0934 0 0
2:35 pm 14:35 Sunny 63 17.4 33 0.3 32 32 S 21 33 30.12 1020 10 16.0934 0 0
2:55 pm 14:55 Sunny 64 17.9 33 0.5 31 31 S 21 33 30.09 1019 10 16.0934 0 0
3:15 pm 15:15 Sunny 65 18.5 33 0.5 30 30 S 20 31 30.06 1018 10 16.0934 0 0
3:35 pm 15:35 Sunny 66 18.7 32 0.1 29 29 SSW 22 35 30.06 1018 10 16.0934 0 0
3:55 pm 15:55 Sunny 67 19.2 32 0.2 28 28 S 17 28 30.06 1018 10 16.0934 0 0
4:15 pm 16:15 Sunny 67 19.3 33 0.5 28 28 SSW 21 33 30.06 1018 10 16.0934 0 0
4:35 pm 16:35 Sunny 68 20 33 0.5 27 27 S 15 24 30.06 1018 10 16.0934 0 0
4:55 pm 16:55 Sunny 69 20.4 32 0.1 26 26 S 18 30 30.06 1018 10 16.0934 0 0
5:15 pm 17:15 Sunny 69 20.3 31 -0.3 25 25 SSW 16 26 30.06 1018 10 16.0934 0 0
5:35 pm 17:35 Sunny 69 20.6 31 -0.4 25 25 S 14 22 30 1016 10 16.0934 0 0
5:55 pm 17:55 Sunny 69 20.3 32 -0.1 26 26 S 16 26 30.03 1017 10 16.0934 0 0
6:15 pm 18:15 Sunny 69 20.5 32 0 25 25 S 16 26 30 1016 10 16.0934 0 0
6:35 pm 18:35 Sunny 68 20 32 0 26 26 S 15 24 30.03 1017 10 16.0934 0 0
6:55 pm 18:55 Sunny 67 19.4 33 0.6 28 28 S 13 20 30.03 1017 10 16.0934 0 0
7:15 pm 19:15 Sunny 66 19 34 1 30 30 S 8 13 30.03 1017 10 16.0934 0 0
7:35 pm 19:35 Sunny 65 18.3 34 1.1 32 32 S 9 15 30.03 1017 10 16.0934 0 0
7:55 pm 19:55 Sunny 64 17.8 34 1.1 33 33 S 7 11 30.06 1018 10 16.0934 0 0
8:15 pm 20:15 Clear 60 15.6 35 1.8 40 40 SSE 10 17 30.09 1019 10 16.0934 0 0
8:35 pm 20:35 Clear 59 15.1 36 2 41 41 SSE 9 15 30.09 1019 10 16.0934 0 0
8:55 pm 20:55 Clear 59 15 36 2 42 42 SSE 10 17 30.09 1019 10 16.0934 0 0
9:15 pm 21:15 Clear 58 14.5 36 2.4 44 44 SSE 8 13 30.09 1019 10 16.0934 0 0
9:35 pm 21:35 Clear 58 14.7 36 2 43 43 SSE 9 15 30.09 1019 10 16.0934 0 0
9:55 pm 21:55 Clear 56 13.3 36 2 47 47 SSE 9 15 30.12 1020 10 16.0934 0 0
10:15 pm 22:15 Clear 56 13.6 34 1.2 43 43 SSE 9 15 30.12 1020 10 16.0934 0 0
10:35 pm 22:35 Clear 55 12.7 34 1.3 46 46 SSE 13 20 30.12 1020 10 16.0934 0 0
10:55 pm 22:55 Clear 54 12.3 35 1.6 48 48 S 12 19 30.12 1020 10 16.0934 0 0
11:15 pm 23:15 Clear 55 12.6 35 1.7 48 48 S 13 20 30.12 1020 10 16.0934 0 0
11:35 pm 23:35 Clear 54 12.2 35 1.8 49 49 S 13 20 30.12 1020 10 16.0934 0 0
11:55 pm 23:55 Clear 54 12 36 2.1 51 51 S 14 22 30.12 1020 10 16.0934 0 0

Powered by AerisWeather